This is the latest recevied weather packets stored in our database for station/object OK1LPD-5. If no packets are shown the sender has not sent any weather packets the latest 10 day(s).
| Time | Temp. | Humidity | Pressure | Rain* | Wind** | Luminosity | Snow |
|---|---|---|---|---|---|---|---|
| 1777176608 | 6.67° C | 84% | 1018.7 hPa | 0 mm | - | - | - |
| 1777176009 | 7.22° C | 84% | 1018.5 hPa | 0 mm | - | - | - |
| 1777175409 | 7.22° C | 82% | 1018.2 hPa | 0 mm | - | - | - |
| 1777174809 | 7.78° C | 81% | 1018 hPa | 0 mm | - | - | - |
| 1777174209 | 7.78° C | 76% | 1017.8 hPa | 0 mm | - | - | - |
| 1777173609 | 7.78° C | 71% | 1017.5 hPa | 0 mm | - | - | - |
| 1777173009 | 7.78° C | 69% | 1017.2 hPa | 0 mm | - | - | - |
| 1777172409 | 7.22° C | 67% | 1017 hPa | 0 mm | - | - | - |
| 1777171811 | 7.22° C | 68% | 1016.8 hPa | 0 mm | - | - | - |
| 1777171209 | 6.67° C | 69% | 1016.6 hPa | 0 mm | - | - | - |
| 1777170609 | 6.11° C | 68% | 1016.5 hPa | 0 mm | - | - | - |
| 1777170010 | 6.67° C | 67% | 1016.2 hPa | 0 mm | - | - | - |
| 1777169410 | 6.67° C | 66% | 1016.2 hPa | 0 mm | - | - | - |
| 1777168809 | 6.67° C | 65% | 1015.9 hPa | 0 mm | - | - | - |
| 1777168212 | 7.22° C | 64% | 1015.8 hPa | 0 mm | - | - | - |
| 1777167612 | 7.22° C | 64% | 1015.6 hPa | 0 mm | - | - | - |
| 1777167008 | 7.22° C | 62% | 1015.5 hPa | 0 mm | - | - | - |
| 1777166412 | 7.78° C | 61% | 1015.3 hPa | 0 mm | - | - | - |
| 1777165811 | 8.33° C | 59% | 1015.1 hPa | 0 mm | - | - | - |
| 1777165209 | 8.89° C | 59% | 1014.9 hPa | 0 mm | - | - | - |
| 1777164612 | 8.89° C | 58% | 1014.7 hPa | 0 mm | - | - | - |
| 1777164012 | 8.89° C | 59% | 1014.5 hPa | 0 mm | - | - | - |
| 1777163409 | 8.33° C | 61% | 1014.6 hPa | 0 mm | - | - | - |
| 1777162811 | 7.78° C | 64% | 1014.3 hPa | 0 mm | - | - | - |
| 1777162209 | 7.78° C | 67% | 1014.1 hPa | 0 mm | - | - | - |
* Rain latest hour (hover to see other rain measurements)
** Current wind speed in m/s (hover to see current wind gust speed)